Weather in Lokhvytsia

Ukraine / Poltava Region     50˚21′27″N   33˚15′56″E
temp.,
°C
wind,
m/s
gust,
m/s
humid.,
%
clouds,
%
prec.,
mm/h
press.,
hPa
HPBL,
m
28 november, sat
sat2823:00+4˚w3780100 0.0 1019372
02:00+3˚w3589100 0.2 1019351
05:00+3˚ssw1298100 1.6 1018109
08:00+3˚s2298100 3.1 1018141
11:00+3˚ese2295100 1.4 1019198
14:00+4˚se2491100 2.4 1018250
17:00+3˚s1292100 1.0 1018202
20:00+4˚s1294100 1.6 101894
29 november, sun
sun2923:00+4˚ssw1294100 0.2 1019119
02:00+4˚sw1195100 0.3 101972
05:00+3˚nnw1196100 0.0 1018103
08:00+3˚n2397100 0.1 1019138
11:00+3˚nnw2296100 0.1 1020133
14:00+3˚wnw1296100 1.2 1021126
17:00+3˚nnw1197100 1.3 102172
20:00+3˚ese2296100 1.6 1023133
30 november, mon
mon3023:00+4˚ene2393100 0.0 102284
02:00+4˚e2496100 0.1 1022201
05:00+5˚sse3697100 1.2 1022266
08:00+5˚sse4796100 2.3 1023328
11:00+5˚sse5994100 2.3 1023449
14:00+4˚sse3694100 4.1 1024387
17:00+4˚se2695100 2.1 1024368
20:00+4˚nne1497100 4.6 1025283
1 december, tue
tue123:00+3˚nnw1395100 1.3 1025249
02:00+2˚nnw5796100 1.8 1025246
05:00+1˚n6896100 0.3 1025278
08:00+2˚nnw4596100 0.4 1026186
11:00+2˚n3395100 0.2 1027176
14:00+3˚ese3485100 0.3 1027439
17:00+3˚e3579100 0.0 1027331
20:00+1˚e359399 0.0 1027378
2 december, wed
wed223:00+1˚e3494100 0.1 1027322
02:00+1˚e3592100 0.1 1027361
05:00e3593100 0.1 1027329
08:00e3592100 0.1 1027322
11:00+1˚ese3484100 0.1 1028429
14:00+1˚ese3482100 0.1 1027511
17:00+1˚e3489100 0.0 1027326
20:00+1˚e3496100 0.0 1028244